STARLINK-32853, 62818

Orbit data source: Space-Track

STARLINK-32853, 62818 is a payload satellite owned by SpaceX/Seattle (US) in LEO that was launched on Fri, 24 Jan 2025 UTC via an FALCON 9 launch vehicle from the Air Force Western Test Range (AFWTR). Payload-class satellites include a variety of spacecraft equipped with specific instruments for various scientific and technological missions. These include communications satellites like Starlink; space stations such as the ISS; scientific satellites like the Hubble; Earth observation satellites from companies like Planet Labs, Umbra, and HawkEye 360; GPS; miniature CubeSats for education and research; and military/defense satellites.

Loading next visibility...
Identifier
62818, 2025-018N
Orbit
LEO
Last TLE update
13 hours ago
Origin
Manufacturer
SpaceX/Seattle
Mission
Operational Commercial Communications
Bus & Motor
STARLINK V2M, Unknown motor
Mass
730 kg wet, ~700 kg dry
Launch date (UTC)
2025-01-24 (3 months ago)
Launch vehicle
FALCON 9
Launch site
Air Force Western Test Range (AFWTR)
Object type
Payload
Rocket body
Debris
Shape & HBR
Box + 2 Pan, 29 m
Radar Cross Section
33.884 m², Medium (>0.1 m² and < 1m²)

Expand to show TLE details & history

TLE from 13 hours ago
0 STARLINK-32853
1 62818U 25018N   25128.68982207 -.00000463  00000-0 -15849-5 0  9998
2 62818  53.1617 287.5633 0001304  86.4856 273.6298 15.39623282 16464
Epoch: 2025-05-08T16:33Z
Definitive object data (Epoch: 2025-05-08T16:33:20.626Z)
Latitude
-0.00004°
Longitude
172.47062°
Altitude
448.07 km
Speed
7.645 km/s
True Right ascension
19h 10m 15s
True Declination
0° 00' 00"
Sunlit
Object was in full shadow at TLE epoch
Visualization TLE readout
Latitude
46.22121°
Longitude
-139.00493°
Altitude
451.366 km
Speed
7.648 km/s
Apparent Right ascension
23h 57m 02s
Apparent Declination
5° 23' 09"
Sunlit
Object is in daylight
Visualization observer readout
Local Sidereal Time
13:26:26
Azimuth
29.729° NE
Elevation
-40.243°
Doppler factor
1
Orbital elements
Apogee altitude
448.37 km
Perigee altitude
446.59 km
Semi-major axis
6,825.617 km
Eccentricity
0.0001304
Inclination
53.1617°
RAAN
287.5633°
Arg. of periapsis
86.4856°
True anomaly
273.61489°
Mean anomaly
273.6298°
Eccentric anomaly
273.62234°
Mean motion
3.84884 °/min
BSTAR
-0.0000015849
Orbital period
93.53 mins
Loading maneuver chart data...
Loading SW <> Apogee altitude chart data...
Loading historical data...
Loading historical data...
Loading historical data...
Loading historical data...
Loading historical data...
Loading historical data...
Loading historical data...

STARLINK-32853 Visibility forecast

Observer location: undefined°, undefined°

Span
Click to sort rows by Start time (UTC) header in descending order
Start Az.
Max El. time (UTC)
Max El. Az.
Max El.
End time (UTC)
End Az.
6 mins2025-05-09 12:58:47.207Z215.092° SW2025-05-09 13:01:47.207Z127.345° SE40.782°2025-05-09 13:04:47.207Z57.577° ENE
4 mins2025-05-09 14:37:47.207Z301.022° NW2025-05-09 14:38:47.207Z322.958° NNW19.325°2025-05-09 14:41:47.207Z23.883° NE
4 mins2025-05-09 19:32:47.207Z337.686° N2025-05-09 19:33:47.207Z11.162° NNE35.308°2025-05-09 19:36:47.207Z107.175° ESE
|